Regional Weather Roundup
Issued by NWS

Home | Current Version | Previous Version | Text Only | Print | Product List | Glossary On
Versions: 1 2 3 4 5 6 7 8 9 10 11 12 13 14 15 16 17 18 19 20 21 22 23 24 25 26 27 28 29 30 31 32 33 34 35 36 37 38 39 40 41 42 43 44 45 46 47 48 49 50
000
ASUS43 KLMK 202010
RWRKY
KENTUCKY REGIONAL WEATHER ROUNDUP
NATIONAL WEATHER SERVICE LOUISVILLE KY
400 PM EDT SUN AUG 20 2017

NOTE "FAIR" INDICATES FEW OR NO CLOUDS BELOW 12,000 FEET
WITH NO SIGNIFICANT WEATHER AND/OR OBSTRUCTIONS TO VISIBILITY.

KYZ001>023-026-027-061>063-070>075-202100-
WESTERN AND SOUTH CENTRAL KENTUCKY

CITY           SKY/WX    TMP DP  RH WIND       PRES   REMARKS
PADUCAH        CLOUDY    93  67  42 VRB5      30.03S HX  96
HENDERSON      SUNNY     92  71  50 S9        30.02F HX  98
OWENSBORO      SUNNY     93  70  46 S9        30.03F HX  99
HOPKINSVILLE   MOSUNNY   91  67  44 SW9       30.05F HX  95
BOWLING GREEN  PTSUNNY   90  66  45 SE5       30.06F HX  92
GLASGOW        MOSUNNY   91  63  39 S5        30.07F HX  92
$$

KYZ024-025-028>034-038-045-046-053-202100-
NORTH CENTRAL KENTUCKY

CITY           SKY/WX    TMP DP  RH WIND       PRES   REMARKS
LOUISVILLE/SDF PTSUNNY   91  67  44 S9        30.04F HX  94
LOUISVILLE/LOU MOSUNNY   90  68  48 SW10      30.05F HX  94
FORT KNOX      SUNNY     90  67  45 S7        30.04F HX  93
$$

KYZ035>037-039>044-047>052-055>060-089>105-202100-
NORTHEAST KENTUCKY

CITY           SKY/WX    TMP DP  RH WIND       PRES   REMARKS
LEXINGTON      MOSUNNY   89  66  46 CALM      30.09F HX  91
COVINGTON      PTSUNNY   86  67  52 SW7       30.07F
FRANKFORT      PTSUNNY   89  64  43 SW7       30.06F HX  90
$$

KYZ054-064>069-076>088-106>120-202100-
SOUTHEAST KENTUCKY

CITY           SKY/WX    TMP DP  RH WIND       PRES   REMARKS
JACKSON        MOSUNNY   87  68  52 CALM      30.13F HX  90
LONDON         SUNNY     88  58  36 VRB5      30.11F
SOMERSET       MOSUNNY   88  59  37 CALM      30.11F
MIDDLESBORO    CLOUDY    83  71  67 CALM      30.12F
MONTICELLO     CLEAR     89  66  46 N13       30.11F HX  91
$$





USA.gov is the U.S. government's official web portal to all federal, state and local government web resources and services.